Time,TemperatureF,DewpointF,PressureIn,WindDirection,WindDirectionDegrees,WindSpeedMPH,WindSpeedGustMPH,Humidity,HourlyPrecipIn,Conditions,Clouds,dailyrainin,SoftwareType,DateUTC
2013-04-02 00:01:00,45.7,36.5,30.19,WSW,258,0.0,0.0,70,0.00,,,0.00,meteohub,2013-04-02 07:01:00,
2013-04-02 00:07:00,45.9,36.7,30.19,WSW,258,0.0,0.0,70,0.00,,,0.00,meteohub,2013-04-02 07:07:00,
2013-04-02 00:12:00,46.0,36.9,30.19,WSW,258,0.0,0.0,70,0.00,,,0.00,meteohub,2013-04-02 07:12:00,
2013-04-02 00:17:00,46.2,37.0,30.19,WSW,258,0.0,0.0,70,0.00,,,0.00,meteohub,2013-04-02 07:17:00,
2013-04-02 00:22:00,46.4,37.2,30.19,WSW,258,0.0,0.0,70,0.00,,,0.00,meteohub,2013-04-02 07:22:00,
2013-04-02 00:27:00,46.6,37.4,30.19,WSW,258,0.0,0.0,70,0.00,,,0.00,meteohub,2013-04-02 07:27:00,
2013-04-02 00:32:00,46.8,37.6,30.19,WSW,258,0.0,0.0,70,0.00,,,0.00,meteohub,2013-04-02 07:32:00,
2013-04-02 00:37:00,46.8,37.6,30.19,WSW,258,0.0,0.0,70,0.00,,,0.00,meteohub,2013-04-02 07:37:00,
2013-04-02 00:42:00,46.8,37.6,30.20,WSW,258,0.0,0.0,70,0.00,,,0.00,meteohub,2013-04-02 07:42:00,
2013-04-02 00:47:00,46.9,37.6,30.20,WSW,258,0.0,0.0,70,0.00,,,0.00,meteohub,2013-04-02 07:47:00,
2013-04-02 00:52:00,46.9,37.6,30.20,WSW,258,0.0,0.0,70,0.00,,,0.00,meteohub,2013-04-02 07:52:00,
2013-04-02 00:57:00,47.1,37.8,30.20,WSW,258,0.0,0.0,70,0.00,,,0.00,meteohub,2013-04-02 07:57:00,
2013-04-02 01:02:00,47.1,37.8,30.20,WSW,258,0.0,0.0,70,0.00,,,0.00,meteohub,2013-04-02 08:02:00,
2013-04-02 01:07:00,47.3,37.9,30.20,WSW,258,0.0,0.0,70,0.00,,,0.00,meteohub,2013-04-02 08:07:00,
2013-04-02 01:13:00,47.5,38.1,30.20,WSW,258,0.0,0.0,70,0.00,,,0.00,meteohub,2013-04-02 08:13:00,
2013-04-02 01:18:00,47.7,38.3,30.20,WSW,258,0.0,0.0,70,0.00,,,0.00,meteohub,2013-04-02 08:18:00,
2013-04-02 01:23:00,47.7,38.3,30.20,WSW,258,0.0,0.0,70,0.00,,,0.00,meteohub,2013-04-02 08:23:00,
2013-04-02 01:28:00,47.8,38.5,30.20,WSW,258,0.0,0.0,70,0.00,,,0.00,meteohub,2013-04-02 08:28:00,
2013-04-02 01:33:00,47.8,38.8,30.20,WSW,258,0.0,0.0,71,0.00,,,0.00,meteohub,2013-04-02 08:33:00,
2013-04-02 01:38:00,47.8,38.8,30.20,WSW,258,0.0,0.0,71,0.00,,,0.00,meteohub,2013-04-02 08:38:00,
2013-04-02 01:43:00,47.8,38.8,30.20,WSW,258,0.0,0.0,71,0.00,,,0.00,meteohub,2013-04-02 08:43:00,
2013-04-02 01:48:00,48.0,39.4,30.20,WSW,258,0.0,0.0,72,0.00,,,0.00,meteohub,2013-04-02 08:48:00,
2013-04-02 01:53:00,48.0,39.4,30.20,WSW,258,0.0,0.0,72,0.00,,,0.00,meteohub,2013-04-02 08:53:00,
2013-04-02 01:58:00,48.2,39.6,30.20,WSW,258,0.0,0.0,72,0.00,,,0.00,meteohub,2013-04-02 08:58:00,
2013-04-02 02:03:00,48.4,40.1,30.20,WSW,258,0.0,0.0,73,0.00,,,0.00,meteohub,2013-04-02 09:03:00,
2013-04-02 02:08:00,48.4,40.1,30.20,WSW,258,0.0,0.0,73,0.00,,,0.00,meteohub,2013-04-02 09:08:00,
2013-04-02 02:13:00,48.6,40.3,30.20,WSW,258,0.0,0.0,73,0.00,,,0.00,meteohub,2013-04-02 09:13:00,
2013-04-02 02:18:00,48.6,40.6,30.20,WSW,258,0.0,0.0,74,0.00,,,0.00,meteohub,2013-04-02 09:18:00,
2013-04-02 02:23:00,48.6,40.6,30.20,WSW,258,0.0,0.0,74,0.00,,,0.00,meteohub,2013-04-02 09:23:00,
2013-04-02 02:28:00,48.6,40.6,30.20,WSW,258,0.0,0.0,74,0.00,,,0.00,meteohub,2013-04-02 09:28:00,
2013-04-02 02:33:00,48.7,40.8,30.20,WSW,258,0.0,0.0,74,0.00,,,0.00,meteohub,2013-04-02 09:33:00,
2013-04-02 02:38:00,48.7,40.8,30.20,WSW,258,0.0,0.0,74,0.00,,,0.00,meteohub,2013-04-02 09:38:00,
2013-04-02 02:43:00,48.7,41.2,30.20,WSW,258,0.0,0.0,75,0.00,,,0.00,meteohub,2013-04-02 09:43:00,
2013-04-02 02:48:00,48.7,41.2,30.20,WSW,258,0.0,0.0,75,0.00,,,0.00,meteohub,2013-04-02 09:48:00,
2013-04-02 02:53:00,48.7,41.2,30.20,WSW,258,0.0,0.0,75,0.00,,,0.00,meteohub,2013-04-02 09:53:00,
2013-04-02 02:58:00,48.7,41.2,30.19,WSW,258,0.0,0.0,75,0.00,,,0.00,meteohub,2013-04-02 09:58:00,
2013-04-02 03:03:00,48.7,41.2,30.19,WSW,258,0.0,0.0,75,0.00,,,0.00,meteohub,2013-04-02 10:03:00,
2013-04-02 03:08:00,48.7,41.2,30.19,WSW,258,0.0,0.0,75,0.00,,,0.00,meteohub,2013-04-02 10:08:00,
2013-04-02 03:13:00,48.7,41.2,30.19,WSW,258,0.0,0.0,75,0.00,,,0.00,meteohub,2013-04-02 10:13:00,
2013-04-02 03:18:00,48.7,41.2,30.19,WSW,258,0.0,0.0,75,0.00,,,0.00,meteohub,2013-04-02 10:18:00,
2013-04-02 03:23:00,48.9,41.4,30.19,WSW,258,0.0,0.0,75,0.00,,,0.00,meteohub,2013-04-02 10:23:00,
2013-04-02 03:28:00,48.9,41.4,30.19,WSW,258,0.0,0.0,75,0.00,,,0.00,meteohub,2013-04-02 10:28:00,
2013-04-02 03:33:00,48.9,41.4,30.19,WSW,258,0.0,0.0,75,0.00,,,0.00,meteohub,2013-04-02 10:33:00,
2013-04-02 03:39:00,48.9,41.4,30.19,WSW,258,0.0,0.0,75,0.00,,,0.00,meteohub,2013-04-02 10:39:00,
2013-04-02 03:44:00,48.9,41.4,30.19,WSW,258,0.0,0.0,75,0.00,,,0.00,meteohub,2013-04-02 10:44:00,
2013-04-02 03:49:00,48.9,41.4,30.19,WSW,258,0.0,0.0,75,0.00,,,0.00,meteohub,2013-04-02 10:49:00,
2013-04-02 03:54:00,48.9,41.4,30.19,WSW,258,0.0,0.0,75,0.00,,,0.00,meteohub,2013-04-02 10:54:00,
2013-04-02 03:59:00,48.9,41.4,30.19,WSW,258,0.0,0.0,75,0.00,,,0.00,meteohub,2013-04-02 10:59:00,
2013-04-02 04:04:00,48.9,41.4,30.19,WSW,258,0.0,0.0,75,0.00,,,0.00,meteohub,2013-04-02 11:04:00,
2013-04-02 04:09:00,48.9,41.4,30.19,WSW,258,0.0,0.0,75,0.00,,,0.00,meteohub,2013-04-02 11:09:00,
2013-04-02 04:14:00,48.9,41.4,30.19,WSW,258,0.0,0.0,75,0.00,,,0.00,meteohub,2013-04-02 11:14:00,
2013-04-02 04:19:00,48.9,41.4,30.19,WSW,258,0.0,0.0,75,0.00,,,0.00,meteohub,2013-04-02 11:19:00,
2013-04-02 04:24:00,48.9,41.4,30.19,WSW,258,0.0,0.0,75,0.00,,,0.00,meteohub,2013-04-02 11:24:00,
2013-04-02 04:29:00,49.1,41.5,30.19,WSW,258,0.0,0.0,75,0.00,,,0.00,meteohub,2013-04-02 11:29:00,
2013-04-02 04:34:00,49.1,41.5,30.19,WSW,258,0.0,0.0,75,0.00,,,0.00,meteohub,2013-04-02 11:34:00,
2013-04-02 04:39:00,49.1,41.5,30.20,WSW,258,0.0,0.0,75,0.00,,,0.00,meteohub,2013-04-02 11:39:00,
2013-04-02 04:44:00,49.1,41.5,30.20,WSW,258,0.0,1.0,75,0.00,,,0.00,meteohub,2013-04-02 11:44:00,
2013-04-02 04:49:00,48.9,41.4,30.20,WSW,258,0.0,1.0,75,0.00,,,0.00,meteohub,2013-04-02 11:49:00,
2013-04-02 04:54:00,48.9,41.4,30.20,WSW,258,0.0,1.0,75,0.00,,,0.00,meteohub,2013-04-02 11:54:00,
2013-04-02 04:59:00,48.9,41.4,30.20,WSW,258,0.0,0.0,75,0.00,,,0.00,meteohub,2013-04-02 11:59:00,
2013-04-02 05:04:00,48.9,41.4,30.20,WSW,258,0.0,0.0,75,0.00,,,0.00,meteohub,2013-04-02 12:04:00,
2013-04-02 05:09:00,48.9,41.4,30.20,WSW,258,0.0,0.0,75,0.00,,,0.00,meteohub,2013-04-02 12:09:00,
2013-04-02 05:14:00,48.9,41.4,30.20,WSW,258,0.0,0.0,75,0.00,,,0.00,meteohub,2013-04-02 12:14:00,
2013-04-02 05:19:00,48.9,41.4,30.20,WSW,258,0.0,0.0,75,0.00,,,0.00,meteohub,2013-04-02 12:19:00,
2013-04-02 05:24:00,48.9,41.7,30.20,WSW,258,0.0,0.0,76,0.00,,,0.00,meteohub,2013-04-02 12:24:00,
2013-04-02 05:29:00,48.9,41.7,30.20,WSW,258,0.0,0.0,76,0.00,,,0.00,meteohub,2013-04-02 12:29:00,
2013-04-02 05:34:00,48.9,41.4,30.20,WSW,258,0.0,0.0,75,0.00,,,0.00,meteohub,2013-04-02 12:34:00,
2013-04-02 05:39:00,48.9,41.7,30.20,WSW,258,0.0,0.0,76,0.00,,,0.00,meteohub,2013-04-02 12:39:00,
2013-04-02 05:44:00,48.9,41.4,30.19,WSW,258,0.0,0.0,75,0.00,,,0.00,meteohub,2013-04-02 12:44:00,
2013-04-02 05:49:00,48.9,41.4,30.20,WSW,258,0.0,0.0,75,0.00,,,0.00,meteohub,2013-04-02 12:49:00,
2013-04-02 05:54:00,48.9,41.7,30.19,WSW,258,0.0,0.0,76,0.00,,,0.00,meteohub,2013-04-02 12:54:00,
2013-04-02 05:59:00,48.9,41.7,30.20,WSW,258,0.0,0.0,76,0.00,,,0.00,meteohub,2013-04-02 12:59:00,
2013-04-02 06:04:00,48.9,41.4,30.20,WSW,258,0.0,0.0,75,0.00,,,0.00,meteohub,2013-04-02 13:04:00,
2013-04-02 06:09:00,48.9,41.4,30.20,WSW,258,0.0,0.0,75,0.00,,,0.00,meteohub,2013-04-02 13:09:00,
2013-04-02 06:14:00,48.9,41.4,30.20,WSW,258,0.0,0.0,75,0.00,,,0.00,meteohub,2013-04-02 13:14:00,
2013-04-02 06:19:00,48.9,41.4,30.20,WSW,258,0.0,0.0,75,0.00,,,0.00,meteohub,2013-04-02 13:19:00,
2013-04-02 06:24:00,48.9,41.4,30.20,WSW,258,0.0,0.0,75,0.00,,,0.00,meteohub,2013-04-02 13:24:00,
2013-04-02 06:29:00,48.9,41.4,30.20,WSW,258,0.0,0.0,75,0.00,,,0.00,meteohub,2013-04-02 13:29:00,
2013-04-02 06:34:00,48.9,41.4,30.20,WSW,258,0.0,0.0,75,0.00,,,0.00,meteohub,2013-04-02 13:34:00,
2013-04-02 06:39:00,48.9,41.4,30.20,WSW,258,0.0,0.0,75,0.00,,,0.00,meteohub,2013-04-02 13:39:00,
2013-04-02 06:44:00,48.9,41.4,30.20,WSW,258,0.0,0.0,75,0.00,,,0.00,meteohub,2013-04-02 13:44:00,
2013-04-02 06:49:00,48.9,41.4,30.20,WSW,258,0.0,1.0,75,0.00,,,0.00,meteohub,2013-04-02 13:49:00,
2013-04-02 06:54:00,48.9,41.4,30.20,WSW,258,0.0,1.0,75,0.00,,,0.00,meteohub,2013-04-02 13:54:00,
2013-04-02 06:59:00,48.9,41.7,30.20,WSW,258,0.0,1.0,76,0.00,,,0.00,meteohub,2013-04-02 13:59:00,
2013-04-02 07:04:00,48.9,41.7,30.20,WNW,286,0.0,1.0,76,0.00,,,0.00,meteohub,2013-04-02 14:04:00,
2013-04-02 07:09:00,49.1,42.3,30.20,WNW,286,0.0,3.0,77,0.00,,,0.00,meteohub,2013-04-02 14:09:00,
2013-04-02 07:14:00,49.1,42.3,30.20,WNW,286,0.0,3.0,77,0.00,,,0.00,meteohub,2013-04-02 14:14:00,
2013-04-02 07:19:00,49.3,42.8,30.20,WNW,286,0.0,3.0,78,0.00,,,0.00,meteohub,2013-04-02 14:19:00,
2013-04-02 07:24:00,49.1,42.6,30.20,NW,305,0.0,1.0,78,0.00,,,0.00,meteohub,2013-04-02 14:24:00,
2013-04-02 07:29:00,49.1,42.6,30.20,NW,305,0.0,3.0,78,0.00,,,0.00,meteohub,2013-04-02 14:29:00,
2013-04-02 07:34:00,49.1,42.6,30.20,NW,305,0.0,3.0,78,0.00,,,0.00,meteohub,2013-04-02 14:34:00,
2013-04-02 07:39:00,49.1,42.6,30.20,NW,305,0.0,3.0,78,0.00,,,0.00,meteohub,2013-04-02 14:39:00,
2013-04-02 07:44:00,49.1,42.6,30.21,NW,305,0.0,1.0,78,0.00,,,0.00,meteohub,2013-04-02 14:44:00,
2013-04-02 07:50:00,49.1,42.6,30.21,NW,305,0.0,0.0,78,0.00,,,0.00,meteohub,2013-04-02 14:50:00,
2013-04-02 07:55:00,49.1,42.6,30.21,NW,305,0.0,0.0,78,0.00,,,0.00,meteohub,2013-04-02 14:55:00,
2013-04-02 08:01:00,49.1,42.6,30.21,NW,305,0.0,0.0,78,0.00,,,0.00,meteohub,2013-04-02 15:01:00,
2013-04-02 08:06:00,49.1,42.3,30.20,NW,305,0.0,0.0,77,0.00,,,0.00,meteohub,2013-04-02 15:06:00,
2013-04-02 08:11:00,49.1,42.3,30.20,NW,305,0.0,0.0,77,0.00,,,0.00,meteohub,2013-04-02 15:11:00,
2013-04-02 08:16:00,49.1,42.3,30.20,NW,305,0.0,0.0,77,0.00,,,0.00,meteohub,2013-04-02 15:16:00,
2013-04-02 08:22:00,49.1,42.3,30.21,NW,305,0.0,0.0,77,0.00,,,0.00,meteohub,2013-04-02 15:22:00,
2013-04-02 08:27:00,49.1,41.9,30.21,NW,305,0.0,0.0,76,0.00,,,0.00,meteohub,2013-04-02 15:27:00,
2013-04-02 08:32:00,49.1,41.9,30.21,NW,305,0.0,0.0,76,0.00,,,0.00,meteohub,2013-04-02 15:32:00,
2013-04-02 08:37:00,49.1,41.9,30.21,NW,305,0.0,0.0,76,0.00,,,0.00,meteohub,2013-04-02 15:37:00,
2013-04-02 08:42:00,49.1,41.9,30.21,NW,305,0.0,0.0,76,0.00,,,0.00,meteohub,2013-04-02 15:42:00,
2013-04-02 08:47:00,49.1,41.9,30.21,NW,305,0.0,0.0,76,0.00,,,0.00,meteohub,2013-04-02 15:47:00,
2013-04-02 08:55:00,49.1,41.9,30.20,NW,305,0.0,0.0,76,0.00,,,0.00,meteohub,2013-04-02 15:55:00,
2013-04-02 09:00:00,49.1,41.9,30.20,SE,145,0.0,2.0,76,0.00,,,0.00,meteohub,2013-04-02 16:00:00,
2013-04-02 09:05:00,49.1,41.9,30.20,SE,145,0.0,3.0,76,0.00,,,0.00,meteohub,2013-04-02 16:05:00,
2013-04-02 09:10:00,49.3,41.7,30.20,SE,145,0.0,3.0,75,0.00,,,0.00,meteohub,2013-04-02 16:10:00,
2013-04-02 09:15:00,49.5,41.9,30.20,SE,145,0.0,3.0,75,0.00,,,0.00,meteohub,2013-04-02 16:15:00,
2013-04-02 09:21:00,49.5,42.3,30.20,SE,145,0.0,1.0,76,0.00,,,0.00,meteohub,2013-04-02 16:21:00,
2013-04-02 09:26:00,49.6,42.8,30.20,SE,145,0.0,1.0,77,0.00,,,0.00,meteohub,2013-04-02 16:26:00,
2013-04-02 09:31:00,49.8,43.0,30.20,ESE,123,0.0,2.0,77,0.00,,,0.00,meteohub,2013-04-02 16:31:00,
2013-04-02 09:36:00,50.2,43.5,30.20,ESE,123,0.0,2.0,78,0.00,,,0.00,meteohub,2013-04-02 16:36:00,
2013-04-02 09:41:00,50.5,44.2,30.20,North,0,0.0,2.0,79,0.00,,,0.00,meteohub,2013-04-02 16:41:00,
2013-04-02 09:47:00,50.7,44.8,30.20,North,355,0.0,3.0,80,0.00,,,0.00,meteohub,2013-04-02 16:47:00,
2013-04-02 09:52:00,50.7,45.1,30.21,North,355,0.0,3.0,81,0.00,,,0.00,meteohub,2013-04-02 16:52:00,
2013-04-02 09:57:00,51.1,45.5,30.20,North,349,1.0,3.0,81,0.00,,,0.00,meteohub,2013-04-02 16:57:00,
2013-04-02 10:02:00,51.1,45.5,30.20,North,349,0.0,3.0,81,0.00,,,0.00,meteohub,2013-04-02 17:02:00,
2013-04-02 10:07:00,51.3,46.0,30.20,NNW,348,0.0,3.0,82,0.00,,,0.00,meteohub,2013-04-02 17:07:00,
2013-04-02 10:12:00,51.3,46.0,30.20,NW,311,0.0,3.0,82,0.00,,,0.00,meteohub,2013-04-02 17:12:00,
2013-04-02 10:17:00,51.4,46.2,30.20,NW,323,4.0,4.0,82,0.00,,,0.00,meteohub,2013-04-02 17:17:00,
2013-04-02 10:25:00,51.4,46.2,30.20,NNW,329,0.0,4.0,82,0.00,,,0.00,meteohub,2013-04-02 17:25:00,
2013-04-02 10:30:00,51.4,46.2,30.20,NW,321,0.0,4.0,82,0.00,,,0.00,meteohub,2013-04-02 17:30:00,
2013-04-02 10:35:00,51.6,46.6,30.20,NW,321,0.0,4.0,83,0.00,,,0.00,meteohub,2013-04-02 17:35:00,
2013-04-02 10:41:00,51.6,46.2,30.20,NW,317,2.0,2.0,82,0.00,,,0.00,meteohub,2013-04-02 17:41:00,
2013-04-02 10:47:00,51.8,46.8,30.20,WNW,296,0.0,3.0,83,0.00,,,0.00,meteohub,2013-04-02 17:47:00,
2013-04-02 10:52:00,51.8,46.8,30.20,NW,304,0.0,3.0,83,0.00,,,0.00,meteohub,2013-04-02 17:52:00,
2013-04-02 10:57:00,51.6,46.6,30.20,NW,304,0.0,4.0,83,0.00,,,0.00,meteohub,2013-04-02 17:57:00,
2013-04-02 11:03:00,51.6,46.6,30.20,NW,304,0.0,4.0,83,0.00,,,0.00,meteohub,2013-04-02 18:03:00,
2013-04-02 11:09:00,52.0,46.9,30.20,NW,304,0.0,4.0,83,0.00,,,0.00,meteohub,2013-04-02 18:09:00,
2013-04-02 11:14:00,52.2,47.1,30.20,SW,227,0.0,1.0,83,0.00,,,0.00,meteohub,2013-04-02 18:14:00,
2013-04-02 11:19:00,52.2,47.1,30.20,West,275,0.0,1.0,83,0.00,,,0.00,meteohub,2013-04-02 18:19:00,
2013-04-02 11:24:00,52.5,47.5,30.20,WSW,242,0.0,1.0,83,0.00,,,0.00,meteohub,2013-04-02 18:24:00,
2013-04-02 11:29:00,52.5,47.5,30.20,WSW,242,0.0,1.0,83,0.00,,,0.00,meteohub,2013-04-02 18:29:00,
2013-04-02 11:35:00,52.9,47.8,30.20,SE,137,0.0,2.0,83,0.00,,,0.00,meteohub,2013-04-02 18:35:00,
2013-04-02 11:40:00,52.9,47.8,30.20,ENE,65,0.0,2.0,83,0.00,,,0.00,meteohub,2013-04-02 18:40:00,
2013-04-02 11:47:00,53.2,48.2,30.20,NE,42,0.0,2.0,83,0.00,,,0.00,meteohub,2013-04-02 18:47:00,
2013-04-02 11:52:00,53.8,48.7,30.20,NNE,20,0.0,3.0,83,0.00,,,0.00,meteohub,2013-04-02 18:52:00,
2013-04-02 11:57:00,54.0,48.6,30.20,NNW,329,0.0,3.0,82,0.00,,,0.00,meteohub,2013-04-02 18:57:00,
2013-04-02 12:02:00,54.0,48.6,30.20,WSW,237,2.0,4.0,82,0.00,,,0.00,meteohub,2013-04-02 19:02:00,
2013-04-02 12:07:00,54.1,48.7,30.20,NW,316,0.0,5.0,82,0.00,,,0.00,meteohub,2013-04-02 19:07:00,
2013-04-02 12:13:00,54.1,48.7,30.20,NW,317,3.0,5.0,82,0.00,,,0.00,meteohub,2013-04-02 19:13:00,
2013-04-02 12:18:00,54.9,49.1,30.20,WSW,248,0.0,5.0,81,0.00,,,0.00,meteohub,2013-04-02 19:18:00,
2013-04-02 12:23:00,54.7,48.9,30.20,WSW,254,1.0,5.0,81,0.00,,,0.00,meteohub,2013-04-02 19:23:00,
2013-04-02 12:29:00,54.9,49.1,30.20,NW,315,0.0,5.0,81,0.00,,,0.00,meteohub,2013-04-02 19:29:00,
2013-04-02 12:34:00,55.0,49.3,30.20,NW,311,2.0,5.0,81,0.00,,,0.00,meteohub,2013-04-02 19:34:00,
2013-04-02 12:39:00,55.0,49.3,30.20,WSW,248,0.0,5.0,81,0.00,,,0.00,meteohub,2013-04-02 19:39:00,
2013-04-02 12:47:00,54.7,48.9,30.20,West,281,3.0,9.0,81,0.00,,,0.00,meteohub,2013-04-02 19:47:00,
2013-04-02 12:52:00,54.3,48.6,30.20,West,281,0.0,9.0,81,0.00,,,0.00,meteohub,2013-04-02 19:52:00,
2013-04-02 12:58:00,54.3,48.6,30.20,NNW,331,0.0,9.0,81,0.00,,,0.00,meteohub,2013-04-02 19:58:00,
2013-04-02 13:03:00,54.0,48.2,30.20,NW,317,0.0,7.0,81,0.00,,,0.00,meteohub,2013-04-02 20:03:00,
2013-04-02 13:09:00,54.0,48.6,30.20,West,267,0.0,5.0,82,0.00,,,0.00,meteohub,2013-04-02 20:09:00,
2013-04-02 13:14:00,54.0,48.6,30.20,West,267,0.0,5.0,82,0.00,,,0.00,meteohub,2013-04-02 20:14:00,
2013-04-02 13:19:00,54.1,48.4,30.20,West,267,0.0,4.0,81,0.00,,,0.00,meteohub,2013-04-02 20:19:00,
2013-04-02 13:24:00,54.1,48.4,30.20,West,276,0.0,3.0,81,0.00,,,0.00,meteohub,2013-04-02 20:24:00,
2013-04-02 13:30:00,54.1,48.4,30.20,West,276,0.0,2.0,81,0.00,,,0.00,meteohub,2013-04-02 20:30:00,
2013-04-02 13:36:00,54.3,48.6,30.20,WNW,294,0.0,3.0,81,0.00,,,0.00,meteohub,2013-04-02 20:36:00,
2013-04-02 13:41:00,54.9,49.1,30.20,WNW,301,3.0,3.0,81,0.00,,,0.00,meteohub,2013-04-02 20:41:00,
2013-04-02 13:46:00,55.4,49.3,30.20,West,271,0.0,4.0,80,0.00,,,0.00,meteohub,2013-04-02 20:46:00,
2013-04-02 13:51:00,55.6,49.1,30.20,East,99,0.0,5.0,79,0.00,,,0.00,meteohub,2013-04-02 20:51:00,
2013-04-02 13:57:00,55.9,49.5,30.20,West,271,0.0,5.0,79,0.00,,,0.00,meteohub,2013-04-02 20:57:00,
2013-04-02 14:02:00,55.9,49.5,30.20,WSW,248,0.0,5.0,79,0.00,,,0.00,meteohub,2013-04-02 21:02:00,
2013-04-02 14:07:00,55.8,48.9,30.20,ESE,103,0.0,5.0,78,0.00,,,0.00,meteohub,2013-04-02 21:07:00,
2013-04-02 14:12:00,55.9,49.1,30.20,ENE,65,0.0,3.0,78,0.00,,,0.00,meteohub,2013-04-02 21:12:00,
2013-04-02 14:17:00,55.8,48.9,30.20,NNE,20,0.0,3.0,78,0.00,,,0.00,meteohub,2013-04-02 21:17:00,
2013-04-02 14:22:00,55.8,48.9,30.21,NE,38,0.0,3.0,78,0.00,,,0.00,meteohub,2013-04-02 21:22:00,
2013-04-02 14:27:00,55.8,49.3,30.21,NW,323,0.0,3.0,79,0.00,,,0.00,meteohub,2013-04-02 21:27:00,
2013-04-02 14:32:00,55.8,48.9,30.21,NNW,338,0.0,3.0,78,0.00,,,0.00,meteohub,2013-04-02 21:32:00,
2013-04-02 14:39:00,55.4,48.9,30.21,NNW,338,0.0,3.0,79,0.00,,,0.00,meteohub,2013-04-02 21:39:00,
2013-04-02 14:44:00,55.0,48.9,30.21,NW,307,0.0,3.0,80,0.00,,,0.00,meteohub,2013-04-02 21:44:00,
2013-04-02 14:49:00,55.0,48.9,30.21,NW,307,0.0,3.0,80,0.00,,,0.00,meteohub,2013-04-02 21:49:00,
2013-04-02 14:54:00,54.9,48.6,30.21,NW,315,0.0,4.0,79,0.00,,,0.00,meteohub,2013-04-02 21:54:00,
2013-04-02 14:59:00,54.7,48.4,30.21,NNW,340,0.0,4.0,79,0.00,,,0.00,meteohub,2013-04-02 21:59:00,
2013-04-02 15:04:00,54.7,48.4,30.21,NNW,340,0.0,4.0,79,0.00,,,0.00,meteohub,2013-04-02 22:04:00,
2013-04-02 15:09:00,54.7,48.6,30.21,NNW,340,0.0,4.0,80,0.00,,,0.00,meteohub,2013-04-02 22:09:00,
2013-04-02 15:15:00,54.5,48.2,30.21,NNW,340,0.0,4.0,79,0.00,,,0.00,meteohub,2013-04-02 22:15:00,
2013-04-02 15:20:00,54.5,48.2,30.21,NNW,340,0.0,1.0,79,0.00,,,0.00,meteohub,2013-04-02 22:20:00,
2013-04-02 15:27:00,54.7,48.6,30.21,NNW,334,0.0,1.0,80,0.00,,,0.00,meteohub,2013-04-02 22:27:00,
2013-04-02 15:32:00,54.7,48.6,30.21,NNW,334,0.0,3.0,80,0.00,,,0.00,meteohub,2013-04-02 22:32:00,
2013-04-02 15:37:00,54.9,48.7,30.20,NNW,334,0.0,3.0,80,0.00,,,0.00,meteohub,2013-04-02 22:37:00,
2013-04-02 15:42:00,55.0,48.4,30.20,NNW,334,0.0,2.0,78,0.00,,,0.00,meteohub,2013-04-02 22:42:00,
2013-04-02 15:47:00,55.2,48.6,30.20,NNW,334,0.0,1.0,78,0.00,,,0.00,meteohub,2013-04-02 22:47:00,
2013-04-02 15:52:00,55.4,48.9,30.20,WNW,300,1.0,1.0,79,0.00,,,0.00,meteohub,2013-04-02 22:52:00,
2013-04-02 15:57:00,55.2,48.6,30.20,NNW,329,0.0,5.0,78,0.00,,,0.00,meteohub,2013-04-02 22:57:00,
2013-04-02 16:03:00,55.2,48.6,30.20,NW,312,4.0,5.0,78,0.00,,,0.00,meteohub,2013-04-02 23:03:00,
2013-04-02 16:08:00,54.9,48.6,30.19,NNW,329,0.0,5.0,79,0.00,,,0.00,meteohub,2013-04-02 23:08:00,
2013-04-02 16:13:00,54.9,48.6,30.19,NNW,329,0.0,5.0,79,0.00,,,0.00,meteohub,2013-04-02 23:13:00,
2013-04-02 16:18:00,55.0,48.6,30.19,NNW,329,0.0,5.0,79,0.00,,,0.00,meteohub,2013-04-02 23:18:00,
2013-04-02 16:23:00,55.0,48.6,30.19,NNW,343,0.0,1.0,79,0.00,,,0.00,meteohub,2013-04-02 23:23:00,
2013-04-02 16:29:00,55.2,48.7,30.19,NNW,346,0.0,3.0,79,0.00,,,0.00,meteohub,2013-04-02 23:29:00,
2013-04-02 16:34:00,55.4,48.9,30.19,NNW,346,0.0,3.0,79,0.00,,,0.00,meteohub,2013-04-02 23:34:00,
2013-04-02 16:39:00,55.6,48.9,30.19,NNW,346,0.0,3.0,78,0.00,,,0.00,meteohub,2013-04-02 23:39:00,
2013-04-02 16:44:00,55.8,48.9,30.19,NNW,346,0.0,2.0,78,0.00,,,0.00,meteohub,2013-04-02 23:44:00,
2013-04-02 16:49:00,55.9,48.9,30.19,NNW,346,0.0,2.0,77,0.00,,,0.00,meteohub,2013-04-02 23:49:00,
2013-04-02 16:54:00,55.9,49.1,30.19,WNW,290,0.0,1.0,78,0.00,,,0.00,meteohub,2013-04-02 23:54:00,
2013-04-02 16:59:00,55.8,48.7,30.19,WNW,290,0.0,3.0,77,0.00,,,0.00,meteohub,2013-04-02 23:59:00,
2013-04-02 17:05:00,55.8,48.7,30.19,WNW,290,0.0,3.0,77,0.00,,,0.00,meteohub,2013-04-03 00:05:00,
2013-04-02 17:10:00,55.6,48.6,30.18,WNW,290,0.0,3.0,77,0.00,,,0.00,meteohub,2013-04-03 00:10:00,
2013-04-02 17:17:00,55.6,48.6,30.18,WNW,290,0.0,3.0,77,0.00,,,0.00,meteohub,2013-04-03 00:17:00,
2013-04-02 17:22:00,55.4,48.7,30.18,WNW,290,0.0,1.0,78,0.00,,,0.00,meteohub,2013-04-03 00:22:00,
2013-04-02 17:28:00,55.6,49.1,30.18,WNW,290,0.0,1.0,79,0.00,,,0.00,meteohub,2013-04-03 00:28:00,
2013-04-02 17:33:00,55.6,48.9,30.17,WNW,290,0.0,1.0,78,0.00,,,0.00,meteohub,2013-04-03 00:33:00,
2013-04-02 17:40:00,55.4,48.7,30.17,WNW,290,0.0,1.0,78,0.00,,,0.00,meteohub,2013-04-03 00:40:00,
2013-04-02 17:46:00,55.4,48.7,30.17,WNW,290,0.0,1.0,78,0.00,,,0.00,meteohub,2013-04-03 00:46:00,
2013-04-02 17:51:00,55.0,48.4,30.17,WNW,290,0.0,1.0,78,0.00,,,0.00,meteohub,2013-04-03 00:51:00,
2013-04-02 17:57:00,54.9,48.6,30.17,WNW,290,0.0,0.0,79,0.00,,,0.00,meteohub,2013-04-03 00:57:00,
2013-04-02 18:02:00,54.9,48.7,30.17,WNW,290,0.0,1.0,80,0.00,,,0.00,meteohub,2013-04-03 01:02:00,
2013-04-02 18:07:00,55.0,48.9,30.17,WNW,290,0.0,1.0,80,0.00,,,0.00,meteohub,2013-04-03 01:07:00,
2013-04-02 18:12:00,55.0,48.6,30.17,WNW,290,0.0,1.0,79,0.00,,,0.00,meteohub,2013-04-03 01:12:00,
2013-04-02 18:17:00,55.0,48.6,30.17,WNW,290,0.0,1.0,79,0.00,,,0.00,meteohub,2013-04-03 01:17:00,
2013-04-02 18:22:00,55.0,48.9,30.17,WNW,290,1.0,2.0,80,0.00,,,0.00,meteohub,2013-04-03 01:22:00,
2013-04-02 18:28:00,55.0,48.6,30.17,WNW,290,0.0,2.0,79,0.00,,,0.00,meteohub,2013-04-03 01:28:00,
2013-04-02 18:33:00,55.0,48.9,30.17,WNW,290,2.0,3.0,80,0.00,,,0.00,meteohub,2013-04-03 01:33:00,
2013-04-02 18:39:00,54.9,48.6,30.17,WNW,289,0.0,3.0,79,0.00,,,0.00,meteohub,2013-04-03 01:39:00,
2013-04-02 18:44:00,54.9,48.7,30.17,WNW,289,0.0,3.0,80,0.00,,,0.00,meteohub,2013-04-03 01:44:00,
2013-04-02 18:50:00,54.7,48.6,30.17,WNW,289,0.0,3.0,80,0.00,,,0.00,meteohub,2013-04-03 01:50:00,
2013-04-02 18:57:00,54.7,48.9,30.17,WNW,289,0.0,0.0,81,0.00,,,0.00,meteohub,2013-04-03 01:57:00,
2013-04-02 19:02:00,54.3,48.6,30.17,WNW,289,0.0,0.0,81,0.00,,,0.00,meteohub,2013-04-03 02:02:00,
2013-04-02 19:07:00,54.3,48.6,30.17,WNW,289,0.0,0.0,81,0.00,,,0.00,meteohub,2013-04-03 02:07:00,
2013-04-02 19:12:00,54.3,48.6,30.17,WNW,289,0.0,0.0,81,0.00,,,0.00,meteohub,2013-04-03 02:12:00,
2013-04-02 19:17:00,54.3,48.6,30.17,WNW,289,0.0,0.0,81,0.00,,,0.00,meteohub,2013-04-03 02:17:00,
2013-04-02 19:22:00,54.0,48.6,30.17,WNW,289,0.0,0.0,82,0.00,,,0.00,meteohub,2013-04-03 02:22:00,
2013-04-02 19:27:00,53.8,48.4,30.17,WNW,289,0.0,0.0,82,0.00,,,0.00,meteohub,2013-04-03 02:27:00,
2013-04-02 19:32:00,53.8,48.4,30.17,WNW,289,0.0,0.0,82,0.00,,,0.00,meteohub,2013-04-03 02:32:00,
2013-04-02 19:38:00,53.4,48.0,30.17,WNW,289,0.0,0.0,82,0.00,,,0.00,meteohub,2013-04-03 02:38:00,
2013-04-02 19:43:00,53.4,48.4,30.17,WNW,289,0.0,0.0,83,0.00,,,0.00,meteohub,2013-04-03 02:43:00,
2013-04-02 19:48:00,53.2,48.2,30.17,WNW,289,0.0,0.0,83,0.00,,,0.00,meteohub,2013-04-03 02:48:00,
2013-04-02 19:54:00,53.1,47.7,30.17,WNW,289,0.0,1.0,82,0.00,,,0.00,meteohub,2013-04-03 02:54:00,
2013-04-02 19:59:00,52.9,47.5,30.18,WNW,289,0.0,1.0,82,0.00,,,0.00,meteohub,2013-04-03 02:59:00,
2013-04-02 20:04:00,52.7,47.3,30.18,WNW,289,0.0,1.0,82,0.00,,,0.00,meteohub,2013-04-03 03:04:00,
2013-04-02 20:09:00,52.5,47.1,30.18,WNW,289,0.0,0.0,82,0.00,,,0.00,meteohub,2013-04-03 03:09:00,
2013-04-02 20:14:00,52.3,46.9,30.18,WNW,289,0.0,0.0,82,0.00,,,0.00,meteohub,2013-04-03 03:14:00,
2013-04-02 20:19:00,52.3,46.9,30.18,WNW,289,0.0,0.0,82,0.00,,,0.00,meteohub,2013-04-03 03:19:00,
2013-04-02 20:24:00,52.2,46.8,30.18,WNW,289,0.0,0.0,82,0.00,,,0.00,meteohub,2013-04-03 03:24:00,
2013-04-02 20:29:00,52.0,46.6,30.19,WNW,289,0.0,0.0,82,0.00,,,0.00,meteohub,2013-04-03 03:29:00,
2013-04-02 20:34:00,51.6,46.2,30.19,WNW,289,0.0,0.0,82,0.00,,,0.00,meteohub,2013-04-03 03:34:00,
2013-04-02 20:40:00,51.6,46.2,30.19,WNW,289,0.0,0.0,82,0.00,,,0.00,meteohub,2013-04-03 03:40:00,
2013-04-02 20:45:00,51.3,46.0,30.19,WNW,289,0.0,0.0,82,0.00,,,0.00,meteohub,2013-04-03 03:45:00,
2013-04-02 20:52:00,50.7,45.5,30.19,WNW,289,0.0,0.0,82,0.00,,,0.00,meteohub,2013-04-03 03:52:00,
2013-04-02 20:57:00,50.2,45.0,30.19,WNW,289,0.0,0.0,82,0.00,,,0.00,meteohub,2013-04-03 03:57:00,
2013-04-02 21:00:00,49.8,44.8,30.19,WNW,289,0.0,0.0,83,0.00,,,0.00,meteohub,2013-04-03 04:00:00,
2013-04-02 21:05:00,49.1,44.2,30.19,WNW,289,0.0,0.0,83,0.00,,,0.00,meteohub,2013-04-03 04:05:00,
2013-04-02 21:11:00,48.6,43.3,30.19,WNW,289,0.0,0.0,82,0.00,,,0.00,meteohub,2013-04-03 04:11:00,
2013-04-02 21:16:00,48.0,42.8,30.19,WNW,289,0.0,0.0,82,0.00,,,0.00,meteohub,2013-04-03 04:16:00,
2013-04-02 21:21:00,47.7,42.4,30.20,WNW,289,0.0,0.0,82,0.00,,,0.00,meteohub,2013-04-03 04:21:00,
2013-04-02 21:26:00,47.5,41.9,30.19,WNW,289,0.0,0.0,81,0.00,,,0.00,meteohub,2013-04-03 04:26:00,
2013-04-02 21:31:00,47.1,41.5,30.20,WNW,289,0.0,0.0,81,0.00,,,0.00,meteohub,2013-04-03 04:31:00,
2013-04-02 21:36:00,46.8,41.0,30.19,WNW,289,0.0,0.0,80,0.00,,,0.00,meteohub,2013-04-03 04:36:00,
2013-04-02 21:42:00,46.4,40.6,30.19,WNW,289,0.0,0.0,80,0.00,,,0.00,meteohub,2013-04-03 04:42:00,
2013-04-02 21:47:00,46.0,40.3,30.19,WNW,289,0.0,0.0,80,0.00,,,0.00,meteohub,2013-04-03 04:47:00,
2013-04-02 21:52:00,45.7,39.9,30.19,WNW,289,0.0,0.0,80,0.00,,,0.00,meteohub,2013-04-03 04:52:00,
2013-04-02 21:57:00,45.3,39.6,30.19,WNW,289,0.0,0.0,80,0.00,,,0.00,meteohub,2013-04-03 04:57:00,
2013-04-02 22:02:00,45.1,39.4,30.19,WNW,289,0.0,0.0,80,0.00,,,0.00,meteohub,2013-04-03 05:02:00,
2013-04-02 22:07:00,45.0,38.8,30.19,WNW,289,0.0,0.0,79,0.00,,,0.00,meteohub,2013-04-03 05:07:00,
2013-04-02 22:12:00,44.6,38.5,30.20,WNW,289,0.0,0.0,79,0.00,,,0.00,meteohub,2013-04-03 05:12:00,
2013-04-02 22:17:00,44.4,37.9,30.20,WNW,289,0.0,0.0,78,0.00,,,0.00,meteohub,2013-04-03 05:17:00,
2013-04-02 22:23:00,44.6,37.6,30.20,WNW,289,0.0,0.0,76,0.00,,,0.00,meteohub,2013-04-03 05:23:00,
2013-04-02 22:28:00,44.8,37.4,30.20,WNW,289,0.0,0.0,75,0.00,,,0.00,meteohub,2013-04-03 05:28:00,
2013-04-02 22:33:00,45.1,37.4,30.20,WNW,289,0.0,0.0,74,0.00,,,0.00,meteohub,2013-04-03 05:33:00,
2013-04-02 22:38:00,45.1,37.0,30.20,WNW,289,0.0,0.0,73,0.00,,,0.00,meteohub,2013-04-03 05:38:00,
2013-04-02 22:43:00,45.3,37.2,30.20,WNW,289,0.0,0.0,73,0.00,,,0.00,meteohub,2013-04-03 05:43:00,
2013-04-02 22:48:00,45.5,37.0,30.20,WNW,289,0.0,0.0,72,0.00,,,0.00,meteohub,2013-04-03 05:48:00,
2013-04-02 22:53:00,45.7,37.2,30.20,WNW,289,0.0,0.0,72,0.00,,,0.00,meteohub,2013-04-03 05:53:00,
2013-04-02 22:58:00,45.9,37.0,30.20,WNW,289,0.0,0.0,71,0.00,,,0.00,meteohub,2013-04-03 05:58:00,
2013-04-02 23:03:00,46.0,37.2,30.20,WNW,289,0.0,0.0,71,0.00,,,0.00,meteohub,2013-04-03 06:03:00,
2013-04-02 23:09:00,46.0,37.2,30.20,WNW,289,0.0,0.0,71,0.00,,,0.00,meteohub,2013-04-03 06:09:00,
2013-04-02 23:14:00,46.2,37.4,30.20,WNW,289,0.0,0.0,71,0.00,,,0.00,meteohub,2013-04-03 06:14:00,
2013-04-02 23:19:00,46.2,37.4,30.19,WNW,289,0.0,0.0,71,0.00,,,0.00,meteohub,2013-04-03 06:19:00,
2013-04-02 23:24:00,46.4,37.2,30.20,WNW,289,0.0,0.0,70,0.00,,,0.00,meteohub,2013-04-03 06:24:00,
2013-04-02 23:29:00,46.4,37.2,30.20,WNW,289,0.0,0.0,70,0.00,,,0.00,meteohub,2013-04-03 06:29:00,
2013-04-02 23:34:00,46.6,37.4,30.20,WNW,289,0.0,0.0,70,0.00,,,0.00,meteohub,2013-04-03 06:34:00,
2013-04-02 23:39:00,46.6,37.4,30.20,WNW,289,0.0,0.0,70,0.00,,,0.00,meteohub,2013-04-03 06:39:00,
2013-04-02 23:44:00,46.8,37.6,30.20,WNW,289,0.0,0.0,70,0.00,,,0.00,meteohub,2013-04-03 06:44:00,
2013-04-02 23:49:00,46.8,37.6,30.20,WNW,289,0.0,0.0,70,0.00,,,0.00,meteohub,2013-04-03 06:49:00,
2013-04-02 23:54:00,46.8,37.6,30.20,WNW,289,0.0,1.0,70,0.00,,,0.00,meteohub,2013-04-03 06:54:00,
2013-04-02 23:59:00,46.9,37.6,30.20,WNW,289,0.0,1.0,70,0.00,,,0.00,meteohub,2013-04-03 06:59:00,